sat.trackr.live / text

‹ back to catalog

STARLINK-33921

NORAD 65934 · 2025-225AA

PAYLOAD ACTIVE UNKNOWN

§ Identity

Operator
Country
US
Launch date
2025-10-08
Launch site
AFWTR
Launch vehicle
Mass (kg)
RCS (m²)

Purposes: comms

External: N2YO · Heavens-Above · Gunter

§ Orbital elements

Epoch: 2026-09-20T11:56:29.300640Z

Period
93.85 min
Inclination
53.1611°
Eccentricity
0.0001048
Mean motion
15.34410347 rev/d
Perigee alt
462.0 km
Apogee alt
463.4 km
Semi-major
6,840.8 km
B*
4.1405e-4
RAAN
339.4288°
Arg perigee
95.2961°
Mean anomaly
264.8162°
Rev number
5,336

§ Raw data

STARLINK-339211 65934U 25225AA  26263.49756135  .00013643  00000+0  41405-3 0  99952 65934  53.1611 339.4288 0001048  95.2961 264.8162 15.34410347 53366

JSON: /api/v1/satellites/65934 · /tle

For live sub-satellite position, see the globe view (requires WebGL).

§ Visibility from observer

Set your observer location to see the next 7 days of passes ≥ 10°. The values pass through the URL so the page stays shareable.

No JS? Fill the form by hand. The geolocation button needs JavaScript.